When you browse on this site, cookies collect data to enhance your experience and personalize the content and advertising you see.
Visit our Privacy Policy to learn more. By continuing to use the site, you agree to this use of cookies and data.
  • In Hungary
  • List of Countries
  • For 7 days
  • Water Temperature
  • Satellite Maps
  • Weather Map
  • News
  • Weather Widgets
  • user-avatar
    Login

    Hourly Weather Lapsze Nizne

    Today, 25 June, Tuesday

    Time Temperature Precipitation Wind Pressure Humidity
    00:00 +18°C° 0 mm 1 mps 712 mmHg 97%
    01:00 +18°C° 0 mm 1 mps 712 mmHg 97%
    02:00 +18°C° 0 mm 1 mps 712 mmHg 97%
    03:00 +18°C° 0 mm 1 mps 712 mmHg 97%
    04:00 +16°C° 0 mm 1 mps 712 mmHg 97%
    05:00 +19°C° 0 mm 1 mps 712 mmHg 91%
    06:00 +21°C° 0 mm 1 mps 713 mmHg 85%
    07:00 +22°C° 0 mm 1 mps 713 mmHg 79%
    08:00 +24°C° 0 mm 1 mps 713 mmHg 72%
    09:00 +26°C° 0 mm 1 mps 714 mmHg 66%
    10:00 +27°C° 0 mm 1 mps 714 mmHg 59%
    11:00 +28°C° 0 mm 2 mps 714 mmHg 57%
    12:00 +29°C° 0 mm 2 mps 714 mmHg 55%
    13:00 +30°C° 0 mm 2 mps 714 mmHg 53%
    14:00 +29°C° 0 mm 2 mps 714 mmHg 55%
    15:00 +29°C° 0 mm 2 mps 714 mmHg 58%
    16:00 +29°C° 0 mm 2 mps 713 mmHg 60%
    17:00 +27°C° 0 mm 2 mps 713 mmHg 69%
    18:00 +26°C° 0 mm 1 mps 713 mmHg 78%
    19:00 +24°C° 0 mm 1 mps 713 mmHg 87%
    20:00 +23°C° 0 mm 1 mps 713 mmHg 88%
    21:00 +22°C° 0 mm 1 mps 713 mmHg 89%
    22:00 +21°C° 0 mm 1 mps 713 mmHg 90%
    23:00 +20°C° 0 mm 1 mps 713 mmHg 90%

    Tomorrow, 26 June, Wednesday

    Time Temperature Precipitation Wind Pressure Humidity
    00:00 +20°C° 0 mm 1 mps 713 mmHg 89%
    01:00 +20°C° 0 mm 1 mps 713 mmHg 89%
    02:00 +20°C° 0 mm 1 mps 713 mmHg 89%
    03:00 +20°C° 0 mm 1 mps 713 mmHg 89%
    04:00 +19°C° 0 mm 1 mps 712 mmHg 89%
    05:00 +22°C° 0 mm 1 mps 713 mmHg 82%
    06:00 +22°C° 0 mm 0 mps 713 mmHg 76%
    07:00 +24°C° 0 mm 0 mps 714 mmHg 69%
    08:00 +26°C° 0 mm 0 mps 714 mmHg 63%
    09:00 +29°C° 0 mm 1 mps 714 mmHg 57%
    10:00 +31°C° 0 mm 1 mps 714 mmHg 51%
    11:00 +31°C° 0 mm 1 mps 714 mmHg 49%
    12:00 +31°C° 0 mm 1 mps 714 mmHg 47%
    13:00 +32°C° 0 mm 1 mps 713 mmHg 44%
    14:00 +32°C° 0 mm 1 mps 713 mmHg 46%
    15:00 +31°C° 0 mm 1 mps 712 mmHg 47%
    16:00 +31°C° 0 mm 1 mps 712 mmHg 48%
    17:00 +29°C° 0 mm 1 mps 711 mmHg 58%
    18:00 +27°C° 0 mm 1 mps 711 mmHg 67%
    19:00 +25°C° 0 mm 1 mps 710 mmHg 77%
    20:00 +24°C° 0 mm 1 mps 710 mmHg 80%
    21:00 +23°C° 0 mm 1 mps 710 mmHg 84%
    22:00 +21°C° 0 mm 1 mps 710 mmHg 87%
    23:00 +21°C° 0 mm 1 mps 709 mmHg 87%

    Day after tomorrow, 27 June, Thursday

    Time Temperature Precipitation Wind Pressure Humidity
    00:00 +21°C° 0 mm 1 mps 709 mmHg 86%
    01:00 +20°C° 0 mm 1 mps 709 mmHg 86%
    02:00 +19°C° 0 mm 2 mps 708 mmHg 87%
    03:00 +20°C° 0 mm 2 mps 708 mmHg 87%
    04:00 +20°C° 0 mm 2 mps 708 mmHg 88%
    05:00 +20°C° 1.1 mm 2 mps 708 mmHg 90%
    06:00 +21°C° 1.1 mm 2 mps 708 mmHg 91%
    07:00 +23°C° 1.1 mm 2 mps 708 mmHg 93%
    08:00 +23°C° 1.1 mm 2 mps 708 mmHg 92%
    09:00 +22°C° 1.1 mm 3 mps 708 mmHg 92%
    10:00 +22°C° 1.1 mm 3 mps 708 mmHg 91%
    11:00 +22°C° 0.3 mm 4 mps 708 mmHg 85%
    12:00 +22°C° 0.3 mm 4 mps 708 mmHg 79%
    13:00 +22°C° 0.3 mm 5 mps 708 mmHg 73%
    14:00 +22°C° 0 mm 5 mps 708 mmHg 67%
    15:00 +22°C° 0 mm 5 mps 708 mmHg 61%
    16:00 +22°C° 0 mm 5 mps 707 mmHg 55%
    17:00 +20°C° 0 mm 4 mps 707 mmHg 63%
    18:00 +19°C° 0 mm 3 mps 707 mmHg 72%
    19:00 +17°C° 0 mm 3 mps 707 mmHg 80%
    20:00 +16°C° 0 mm 3 mps 707 mmHg 85%
    21:00 +15°C° 0 mm 2 mps 707 mmHg 90%
    22:00 +14°C° 0 mm 2 mps 707 mmHg 94%
    23:00 +14°C° 0.2 mm 2 mps 707 mmHg 95%

    28 June, Friday

    Time Temperature Precipitation Wind Pressure Humidity
    00:00 +14°C° 0.2 mm 2 mps 707 mmHg 95%
    01:00 +14°C° 0.2 mm 2 mps 707 mmHg 96%
    02:00 +14°C° 0.2 mm 2 mps 707 mmHg 96%
    03:00 +13°C° 0.2 mm 1 mps 707 mmHg 97%
    04:00 +13°C° 0.2 mm 1 mps 707 mmHg 97%
    05:00 +14°C° 0.2 mm 1 mps 707 mmHg 95%
    06:00 +15°C° 0.2 mm 1 mps 708 mmHg 92%
    07:00 +16°C° 0.2 mm 2 mps 708 mmHg 89%
    08:00 +17°C° 0.4 mm 2 mps 708 mmHg 85%
    09:00 +17°C° 0.4 mm 2 mps 708 mmHg 81%
    10:00 +18°C° 0.4 mm 2 mps 708 mmHg 77%
    11:00 +18°C° 0.5 mm 2 mps 708 mmHg 77%
    12:00 +19°C° 0.5 mm 2 mps 708 mmHg 77%
    13:00 +19°C° 0.5 mm 3 mps 708 mmHg 77%
    14:00 +19°C° 0.5 mm 3 mps 707 mmHg 78%
    15:00 +19°C° 0.5 mm 3 mps 707 mmHg 79%
    16:00 +19°C° 0.5 mm 3 mps 707 mmHg 80%
    17:00 +18°C° 0.4 mm 3 mps 707 mmHg 84%
    18:00 +17°C° 0.4 mm 3 mps 707 mmHg 87%
    19:00 +16°C° 0.4 mm 2 mps 707 mmHg 91%
    20:00 +15°C° 0.3 mm 2 mps 707 mmHg 93%
    21:00 +14°C° 0.3 mm 2 mps 707 mmHg 94%
    22:00 +14°C° 0.3 mm 2 mps 708 mmHg 96%
    23:00 +13°C° 0.2 mm 2 mps 708 mmHg 96%

    29 June, Saturday

    Time Temperature Precipitation Wind Pressure Humidity
    00:00 +13°C° 0.2 mm 2 mps 708 mmHg 95%
    01:00 +13°C° 0.2 mm 2 mps 708 mmHg 94%
    02:00 +12°C° 0 mm 2 mps 708 mmHg 92%
    03:00 +10°C° 0 mm 2 mps 708 mmHg 91%
    04:00 +10°C° 0 mm 1 mps 708 mmHg 89%
    05:00 +10°C° 0 mm 2 mps 708 mmHg 82%
    06:00 +12°C° 0 mm 2 mps 709 mmHg 74%
    07:00 +13°C° 0 mm 2 mps 709 mmHg 67%
    08:00 +13°C° 0 mm 3 mps 709 mmHg 61%
    09:00 +16°C° 0 mm 3 mps 710 mmHg 55%
    10:00 +17°C° 0 mm 4 mps 710 mmHg 49%
    11:00 +17°C° 0 mm 4 mps 710 mmHg 51%
    12:00 +17°C° 0 mm 4 mps 709 mmHg 53%
    13:00 +17°C° 0 mm 4 mps 709 mmHg 55%
    14:00 +17°C° 0.1 mm 4 mps 709 mmHg 57%
    15:00 +17°C° 0.1 mm 4 mps 709 mmHg 59%
    16:00 +17°C° 0.1 mm 4 mps 709 mmHg 62%
    17:00 +16°C° 0 mm 3 mps 709 mmHg 67%
    18:00 +15°C° 0 mm 2 mps 709 mmHg 73%
    19:00 +15°C° 0 mm 2 mps 709 mmHg 78%
    20:00 +14°C° 0.1 mm 1 mps 709 mmHg 81%
    21:00 +14°C° 0.1 mm 1 mps 709 mmHg 84%
    22:00 +13°C° 0.1 mm 1 mps 709 mmHg 88%
    23:00 +13°C° 0.1 mm 1 mps 709 mmHg 89%

    30 June, Sunday

    Time Temperature Precipitation Wind Pressure Humidity
    00:00 +12°C° 0.1 mm 1 mps 709 mmHg 91%
    01:00 +12°C° 0.1 mm 1 mps 709 mmHg 93%
    02:00 +11°C° 0 mm 1 mps 709 mmHg 93%
    03:00 +11°C° 0 mm 1 mps 709 mmHg 94%
    04:00 +10°C° 0 mm 1 mps 709 mmHg 94%
    05:00 +12°C° 0 mm 1 mps 709 mmHg 88%
    06:00 +14°C° 0 mm 1 mps 710 mmHg 83%
    07:00 +16°C° 0 mm 1 mps 710 mmHg 77%
    08:00 +19°C° 0 mm 1 mps 710 mmHg 68%
    09:00 +21°C° 0 mm 1 mps 710 mmHg 59%
    10:00 +23°C° 0 mm 1 mps 711 mmHg 49%
    11:00 +23°C° 0 mm 1 mps 711 mmHg 48%
    12:00 +24°C° 0 mm 1 mps 711 mmHg 46%
    13:00 +25°C° 0 mm 1 mps 710 mmHg 45%
    14:00 +25°C° 0 mm 1 mps 710 mmHg 46%
    15:00 +25°C° 0 mm 1 mps 710 mmHg 47%
    16:00 +25°C° 0 mm 1 mps 709 mmHg 49%
    17:00 +23°C° 0 mm 1 mps 709 mmHg 58%
    18:00 +22°C° 0 mm 1 mps 709 mmHg 68%
    19:00 +20°C° 0 mm 1 mps 708 mmHg 77%
    20:00 +19°C° 0 mm 1 mps 708 mmHg 81%
    21:00 +16°C° 0 mm 1 mps 708 mmHg 85%
    22:00 +15°C° 0 mm 2 mps 707 mmHg 89%
    23:00 +15°C° 0 mm 2 mps 707 mmHg 89%
    Show more